Time,B instrument,Bx,By,Bz,sigma B,Ion instrument,Status,Tp_par,Tp_perp,carrot,r_sun,clat,clong,earth_he_angle,n_p,vp_x,vp_y,vp_z,vth_p_par,vth_p_perp
1980-06-13 00:00:19,1,20.6632,-1.44211,5.98421,0.731105,1,1,199197.0,533380.0,1695,0.44014776,7.1907988,19.460022,78.045944,7.49027,572.983,-19.3326,-21.4096,57.3454,93.8374
1980-06-13 00:00:59,1,20.62,-1.71,5.76,0.917551,1,1,188037.0,617287.0,1695,0.44014776,7.1907988,19.452209,78.045944,7.6972,575.047,-21.6498,-19.9319,55.7159,100.949
1980-06-13 00:01:40,1,20.5833,-1.7,5.4,1.04523,1,1,196875.0,578393.0,1695,0.44015676,7.1908283,19.450043,78.047699,7.58763,572.666,-28.9066,-25.3475,57.0103,97.7168
1980-06-13 00:02:20,1,20.115,-3.185,6.265,0.866502,1,1,185569.0,596328.0,1695,0.44016576,7.1908588,19.444,78.049454,7.59281,575.993,-13.7538,-24.2396,55.3492,99.2203
1980-06-13 00:03:01,1,20.3,-3.29474,5.28421,0.927212,1,1,180137.0,551687.0,1695,0.4401747,7.1908884,19.437927,78.051208,7.75531,574.401,-5.84363,-19.9347,54.533,95.4343
1980-06-13 00:03:41,1,18.8158,0.505263,8.89474,2.88411,1,1,192297.0,573304.0,1695,0.44017476,7.1908884,19.434021,78.051208,7.07297,584.637,-28.5512,-56.8866,56.3436,97.286
1980-06-13 00:04:22,1,19.42,0.54,8.565,1.28735,1,1,158572.0,616329.0,1695,0.4401837,7.1909189,19.427979,78.052963,7.79394,574.682,-30.6883,-38.6212,51.1648,100.87
1980-06-13 00:05:02,1,19.645,1.395,8.235,0.569408,1,1,204932.0,595277.0,1695,0.4401927,7.1909485,19.425842,78.054733,7.89277,577.843,-38.1269,-32.9712,58.1652,99.1328
1980-06-13 00:05:43,1,19.135,2.75,8.79,0.938976,1,1,211771.0,635814.0,1695,0.44019276,7.1909485,19.41803,78.054733,7.54343,587.618,-42.7969,-38.9926,59.1277,102.453
1980-06-13 00:06:23,1,19.8,0.185,6.575,3.86706,1,1,206564.0,555703.0,1695,0.4402017,7.190979,19.415863,78.056488,7.22135,575.565,-22.0445,-26.824,58.3962,95.781
1980-06-13 00:07:04,1,19.765,0.66,7.41,2.49371,1,1,231294.0,523604.0,1695,0.4402107,7.1910086,19.409821,78.058243,7.32257,584.0,-30.8107,-45.3097,61.7932,92.9735
1980-06-13 00:07:44,1,20.615,0.43,5.48,1.40142,1,1,223833.0,636464.0,1695,0.4402107,7.1910086,19.402008,78.058243,8.08532,571.58,-28.8236,-13.6979,60.7882,102.505
1980-06-13 00:08:25,1,20.5105,0.568421,6.22632,1.12521,1,1,192163.0,594205.0,1695,0.4402197,7.1910391,19.399841,78.059998,7.89211,572.53,-17.5702,-20.5702,56.3239,99.0436
1980-06-13 00:09:05,1,20.32,1.11,6.905,0.802481,1,1,207135.0,542028.0,1695,0.4402287,7.1910686,19.393799,78.061752,7.27972,575.967,-40.3632,-32.0118,58.477,94.5951
1980-06-13 00:09:46,1,20.1316,-0.889474,7.03684,0.769934,1,1,192333.0,571588.0,1695,0.4402287,7.1910686,19.389893,78.061768,7.53976,579.367,-21.8782,-32.5148,56.3488,97.1403
1980-06-13 00:10:26,1,20.435,-4.16,4.785,0.889354,1,1,217695.0,611880.0,1695,0.4402377,7.1910992,19.38385,78.063522,8.1508,577.61,2.9932,-15.1639,59.949,100.506
1980-06-13 00:11:07,1,20.5579,-3.52105,4.93684,0.707185,1,1,220502.0,605277.0,1695,0.4402467,7.1911287,19.377777,78.065277,7.7181,580.591,7.64363,-12.4035,60.3343,99.962
1980-06-13 00:11:47,1,20.7632,-2.44211,4.65263,0.605149,1,1,196814.0,607418.0,1695,0.4402467,7.1911287,19.373871,78.065277,7.65878,580.103,-9.15598,-16.6126,57.0014,100.139
1980-06-13 00:12:28,1,20.7895,-2.74737,4.27368,0.665784,1,1,195629.0,667037.0,1695,0.4402557,7.1911592,19.367828,78.067032,8.08484,576.178,-8.63529,-12.2089,56.8296,104.938
1980-06-13 00:13:08,1,20.92,-3.24,3.96,0.715122,1,1,221333.0,631428.0,1695,0.4402647,7.1911888,19.365662,78.068787,8.03186,576.786,-4.25811,-9.61371,60.4479,102.099
1980-06-13 00:13:49,1,20.5789,-4.02105,4.42105,0.70542,1,1,199677.0,584526.0,1695,0.4402647,7.1911888,19.357849,78.068787,7.70925,578.356,1.07457,-15.4073,57.4146,98.2336
1980-06-13 00:14:29,1,20.835,-3.46,4.36,0.697908,1,1,202383.0,574389.0,1695,0.4402737,7.1912193,19.351807,78.070557,8.27461,572.952,0.330857,-20.3687,57.8022,97.378
1980-06-13 00:15:10,1,21.235,-3.025,2.97,1.17228,1,1,193973.0,580309.0,1695,0.4402827,7.1912489,19.34967,78.072311,7.81806,567.155,-15.1439,-2.71205,56.5885,97.8786
1980-06-13 00:15:50,1,21.0895,-3.95789,2.48421,0.657326,1,1,202123.0,569881.0,1695,0.4402827,7.1912489,19.341858,78.072311,7.77934,571.942,4.8085,0.660973,57.7651,96.9952
1980-06-13 00:16:31,1,21.015,-3.48,2.59,0.527991,1,1,206928.0,650794.0,1695,0.4402917,7.1912794,19.339691,78.074066,8.03296,574.915,-4.50532,-8.13397,58.4477,103.652
1980-06-13 00:17:11,1,21.0429,-3.82857,1.62381,0.658728,1,1,235248.0,629899.0,1695,0.4403007,7.191309,19.333649,78.075821,8.17514,566.742,-6.22387,6.85779,62.3191,101.975
1980-06-13 00:17:52,1,21.1526,-3.05263,1.73684,0.76085,1,1,191023.0,598684.0,1695,0.4403007,7.191309,19.329742,78.075821,7.66264,566.876,-5.91994,1.21682,56.1567,99.4161
1980-06-13 00:18:32,1,21.0158,-3.05263,1.74211,0.554358,1,1,196342.0,588597.0,1695,0.4403097,7.1913395,19.323669,78.077576,7.72201,567.324,-4.19741,2.2869,56.933,98.575
1980-06-13 00:19:13,1,20.8158,-4.01053,1.54211,0.601291,1,1,172806.0,589323.0,1695,0.4403187,7.1913691,19.317627,78.079346,7.73596,568.685,0.0701701,1.61798,53.4118,98.6358
1980-06-13 00:19:53,1,20.4263,-5.17368,1.5,0.724521,1,1,185058.0,509952.0,1695,0.4403187,7.1913691,19.313721,78.079346,7.11119,570.379,7.71379,4.90973,55.2728,91.7535
1980-06-13 00:20:34,1,19.9684,-6.94737,-0.968421,1.64011,1,1,192956.0,563388.0,1695,0.4403277,7.1913996,19.307678,78.0811,7.41929,575.473,19.1745,21.4724,56.44,96.441
1980-06-13 00:21:14,1,18.6842,-9.05263,-3.91053,1.24204,1,1,220444.0,555877.0,1695,0.4403367,7.1914291,19.305511,78.082855,7.8336,588.313,37.8403,42.6473,60.3264,95.796
1980-06-13 00:21:55,1,19.1316,-7.6,-4.15263,1.66683,1,1,153801.0,537296.0,1695,0.4403367,7.1914291,19.297699,78.082855,7.50737,577.635,23.648,28.9791,50.3891,94.1813
1980-06-13 00:22:35,1,18.8947,-6.96316,-5.58947,1.89864,1,1,182741.0,635288.0,1695,0.4403457,7.1914597,19.291656,78.08461,8.21841,577.964,16.8447,52.9507,54.9257,102.41
1980-06-13 00:23:16,1,17.0053,-8.85263,-8.16316,2.18585,1,1,190195.0,527751.0,1695,0.4403547,7.1914892,19.28952,78.08638,6.89849,594.646,34.074,76.0222,56.0348,93.341
1980-06-13 00:23:56,1,14.8143,-11.0476,-9.91429,1.44953,1,1,190138.0,539265.0,1695,0.4403547,7.1914892,19.281708,78.08638,7.42251,606.731,44.9759,91.1955,56.0264,94.3537
1980-06-13 00:24:37,1,16.405,-7.375,-10.535,2.77788,1,1,179546.0,604973.0,1695,0.44036371,7.1915197,19.279541,78.088135,7.7962,598.289,29.692,83.772,54.4435,99.9369
1980-06-13 00:25:17,1,15.6682,-9.55,-8.89091,4.35995,1,1,203375.0,546440.0,1695,0.44037271,7.1915493,19.273499,78.08989,7.01593,607.39,44.0429,88.8606,57.9438,94.9794
1980-06-13 00:25:58,1,14.755,-13.32,-4.48,2.47117,1,1,164159.0,746756.0,1695,0.44037271,7.1915493,19.265686,78.08989,9.6267,596.074,57.0376,26.5147,52.0584,111.032
1980-06-13 00:26:38,1,15.305,-12.325,-6.265,2.04246,1,1,181171.0,554748.0,1695,0.44038171,7.1915798,19.263519,78.091644,7.08255,592.393,48.3327,49.8017,54.6893,95.6986
1980-06-13 00:27:19,1,12.67,-13.465,-8.68,2.0835,1,1,183102.0,473115.0,1695,0.44039071,7.1916094,19.257477,78.093399,6.29019,640.721,83.2561,78.0934,54.98,88.3774
1980-06-13 00:27:59,1,11.4429,-13.6048,-10.1238,2.1556,1,1,158202.0,600182.0,1695,0.44039071,7.1916094,19.253571,78.093399,8.135,630.329,68.9615,84.7851,51.105,99.5404
1980-06-13 00:28:40,1,13.0048,-12.3619,-9.80476,2.10384,1,1,160602.0,519891.0,1695,0.44039971,7.1916399,19.247528,78.095169,6.50204,633.308,72.1102,85.2366,51.4912,92.6433
1980-06-13 00:29:20,1,13.9952,-11.4095,-10.0333,1.74648,1,1,167636.0,632908.0,1695,0.44040871,7.1916695,19.245361,78.096924,7.95377,628.11,63.8109,84.6195,52.6068,102.218
1980-06-13 00:30:01,1,11.081,-12.1714,-12.0571,2.40482,1,1,216189.0,541424.0,1695,0.44041771,7.1917,19.239319,78.098679,6.70763,667.323,65.7974,113.727,59.7413,94.5424
1980-06-13 00:30:41,1,8.77727,-11.9727,-14.2773,1.97991,1,1,189220.0,556433.0,1695,0.44041771,7.1917,19.231506,78.098679,6.65826,647.534,62.5406,110.354,55.891,95.8439
1980-06-13 00:31:22,1,4.12381,-11.3429,-16.6429,2.29203,1,1,198103.0,570737.0,1695,0.44042671,7.1917305,19.22934,78.100433,7.56077,692.794,50.8359,134.771,57.1878,97.068
1980-06-13 00:32:02,1,3.51739,-11.913,-16.5696,1.64459,1,1,176867.0,540180.0,1695,0.44043571,7.1917601,19.223297,78.102188,7.82639,700.601,58.8558,120.565,54.0358,94.4337
1980-06-13 00:32:43,1,5.84545,-10.9636,-16.1455,4.13126,1,1,179596.0,535908.0,1695,0.44043571,7.1917601,19.219391,78.102203,7.42788,661.87,46.8164,120.548,54.451,94.0596
1980-06-13 00:33:23,1,6.67273,-10.3182,-16.5864,2.54042,1,1,203634.0,586029.0,1695,0.44044471,7.1917906,19.213348,78.103958,8.53829,671.394,42.4452,123.302,57.9806,98.3598
1980-06-13 00:34:04,1,6.7,-10.3318,-14.1864,8.18761,1,1,258599.0,509144.0,1695,0.44045371,7.1918201,19.207275,78.105713,7.34774,698.973,70.6235,111.89,65.3389,91.6808
1980-06-13 00:34:44,-1,nan,nan,nan,nan,1,4,nan,nan,1695,0.44045371,7.1918201,19.203369,78.105713,nan,nan,nan,nan,nan,nan
1980-06-13 00:35:25,-1,nan,nan,nan,nan,1,4,nan,nan,1695,0.44046271,7.1918507,19.197327,78.107468,nan,nan,nan,nan,nan,nan
1980-06-13 00:36:05,1,18.87,-1.345,6.65,1.22926,1,1,232876.0,403109.0,1695,0.44047171,7.1918802,19.19516,78.109222,9.08104,620.113,-16.7633,-28.5725,62.0041,81.5772
1980-06-13 00:36:46,1,19.5286,-1.65238,6.04286,0.928046,1,1,255617.0,446857.0,1695,0.44047171,7.1918802,19.187347,78.109222,8.88835,606.816,-7.36768,-11.7901,64.961,85.8899
1980-06-13 00:37:26,1,19.65,0.65,6.305,1.29363,1,1,229807.0,391799.0,1695,0.44048071,7.1919107,19.181305,78.110992,8.73268,611.064,-37.4752,-23.0504,61.5942,80.4247
1980-06-13 00:38:07,1,19.7952,-0.0571429,5.76667,1.33644,1,1,227715.0,396806.0,1695,0.44048971,7.1919403,19.179169,78.112747,9.25302,609.332,-33.0777,-15.9664,61.3132,80.937
1980-06-13 00:38:47,1,19.2714,-2.4,5.93333,1.32754,1,1,179616.0,402870.0,1695,0.44048971,7.1919403,19.171356,78.112747,8.26409,613.402,-12.982,-15.5248,54.4542,81.5531
1980-06-13 00:39:28,1,18.99,-1.055,6.88,1.99624,1,1,242483.0,411019.0,1695,0.44049871,7.1919708,19.169189,78.114502,9.62833,621.304,-13.1348,-33.5768,63.2701,82.3737
1980-06-13 00:40:08,1,19.5476,-0.295238,5.59524,1.00597,1,1,233620.0,413950.0,1695,0.44050771,7.1920004,19.163147,78.116257,8.68367,613.089,-31.5879,-15.3594,62.103,82.6669
1980-06-13 00:40:49,1,19.6,0.44,4.98,1.80111,1,1,285844.0,460760.0,1695,0.44050771,7.1920004,19.155334,78.116257,9.34232,600.807,-34.1197,-8.83096,68.6946,87.2158
1980-06-13 00:41:29,1,19.5857,-0.290476,5.80952,1.2433,1,1,219332.0,362595.0,1695,0.44051671,7.1920309,19.153168,78.118011,8.6605,618.499,-22.387,-32.6407,60.1739,77.3693
1980-06-13 00:42:10,1,19.355,-0.355,6.19,1.60183,1,1,247917.0,399094.0,1695,0.44052571,7.1920605,19.147125,78.119781,8.63306,609.165,-28.1174,-18.0109,63.975,81.17
1980-06-13 00:42:50,1,19.185,0.04,6.59,1.4052,1,1,214417.0,402673.0,1695,0.44052571,7.1920605,19.143219,78.119781,9.08845,615.706,-19.9414,-27.5039,59.496,81.5331
1980-06-13 00:43:31,1,19.185,0.39,6.725,1.04262,1,1,247876.0,413703.0,1695,0.44053471,7.192091,19.137177,78.121536,8.62077,610.615,-32.7137,-21.7185,63.9699,82.6423
1980-06-13 00:44:11,1,19.3238,-1.19048,5.65714,2.43631,1,1,234630.0,418020.0,1695,0.44054371,7.1921206,19.13501,78.123291,8.29982,606.047,-23.5369,-32.9609,62.2371,83.0723
1980-06-13 00:44:52,1,20.47,-1.185,2.565,0.961067,1,1,216293.0,424495.0,1695,0.44054371,7.1921206,19.127197,78.123291,8.44568,601.819,-16.6873,9.19921,59.7557,83.7133
1980-06-13 00:45:32,1,19.735,-2.15,5.225,1.30524,1,1,183268.0,386332.0,1695,0.44055271,7.1921511,19.121155,78.125046,8.66641,612.355,-21.9842,-17.9056,55.0048,79.8617
1980-06-13 00:46:13,1,20.565,-1.105,2.355,2.40109,1,1,215674.0,400072.0,1695,0.44056171,7.1921806,19.118988,78.126801,9.26699,606.926,-37.4118,8.3272,59.6702,81.2694
1980-06-13 00:46:53,1,20.835,-1.73,2.055,1.17849,1,1,191558.0,371057.0,1695,0.44056171,7.1921806,19.111206,78.126816,8.3634,610.865,-20.0109,-1.26995,56.2352,78.2669
1980-06-13 00:47:34,1,20.6381,-2.96667,1.69524,1.36252,1,1,188402.0,404444.0,1695,0.44057071,7.1922112,19.109039,78.128571,8.6703,613.521,-17.5048,0.826823,55.77,81.7122
1980-06-13 00:48:14,1,20.195,-3.24,3.275,1.51484,1,1,222334.0,424618.0,1695,0.44057971,7.1922407,19.102997,78.130325,8.57575,603.004,-9.19496,-4.78388,60.5844,83.7254
1980-06-13 00:48:55,1,20.119,-3.04286,4.54762,1.52435,1,1,213645.0,386415.0,1695,0.44057971,7.1922407,19.095184,78.130325,8.39842,611.292,-6.5352,-19.3639,59.3888,79.8702
1980-06-13 00:49:35,1,20.2905,-2.90952,3.63333,1.32598,1,1,223823.0,432705.0,1695,0.44058871,7.1922712,19.093018,78.13208,8.97363,607.089,-4.47634,6.29109,60.7869,84.5189
1980-06-13 00:50:16,1,20.155,-2.24,4.375,1.34638,1,1,216815.0,393732.0,1695,0.44059771,7.1923008,19.086975,78.133835,8.42322,603.289,-21.8631,-17.4781,59.8277,80.6229
1980-06-13 00:50:56,1,20.175,-1.25,4.815,1.5494,1,1,203811.0,408274.0,1695,0.44059771,7.1923008,19.083069,78.133835,8.2347,601.528,-22.2745,-18.1836,58.0059,82.0983
1980-06-13 00:51:37,1,20.075,0.745,5.53,2.09725,1,1,241750.0,454484.0,1695,0.44060671,7.1923313,19.077026,78.135605,8.83377,594.5,-23.5356,-19.6886,63.1744,86.6198
1980-06-13 00:52:17,1,19.89,1.9,5.345,2.43544,1,1,248653.0,436945.0,1695,0.44061571,7.1923609,19.07486,78.13736,8.85854,597.472,-65.6612,-20.508,64.07,84.932
1980-06-13 00:52:58,1,20.215,-0.15,4.665,1.60033,1,1,242911.0,444131.0,1695,0.44061571,7.1923609,19.067047,78.13736,8.75078,597.11,-20.5086,-20.8497,63.3259,85.6275
1980-06-13 00:53:38,1,20.405,-3.795,0.03,2.21789,1,1,230062.0,397781.0,1695,0.44062471,7.1923914,19.061005,78.139114,9.27821,614.861,-7.71333,7.36821,61.6283,81.0363
1980-06-13 00:54:19,1,20.31,-4.7,-0.84,0.735051,1,1,241144.0,414375.0,1695,0.44063371,7.192421,19.058838,78.140869,9.87612,613.237,0.155721,16.8109,63.0952,82.7093
1980-06-13 00:54:59,1,20.47,-4.045,0.18,0.827753,1,1,210762.0,412145.0,1695,0.44063371,7.192421,19.051025,78.140869,9.05438,607.675,-9.59868,10.2966,58.9867,82.4865
1980-06-13 00:55:40,1,20.21,-4.54,-0.27,0.895209,1,1,227172.0,400860.0,1695,0.44064271,7.1924515,19.048889,78.142624,9.11132,613.077,-2.62972,11.3479,61.24,81.3493
1980-06-13 00:56:20,1,20.345,-3.485,1.685,1.57259,1,1,113809.0,389190.0,1695,0.44065171,7.192481,19.042847,78.144394,8.2666,622.717,-12.4012,13.8184,43.3457,80.1565
1980-06-13 00:57:01,1,20.385,-3.285,1.335,1.22467,1,1,142459.0,388878.0,1695,0.44066072,7.1925116,19.036774,78.146149,8.87848,630.256,-9.76634,9.80872,48.4956,80.1243
1980-06-13 00:57:41,1,20.5091,-3.35,2.07273,1.30553,1,1,125111.0,368389.0,1695,0.44066072,7.1925116,19.032867,78.146149,8.44663,627.792,-14.1137,8.01945,45.4471,77.985
1980-06-13 00:58:22,1,20.9952,-1.28095,-0.5,1.18366,1,1,205668.0,377863.0,1695,0.44066972,7.1925411,19.026825,78.147903,9.36698,619.928,-26.4521,29.5022,58.2695,78.9815
1980-06-13 00:59:43,1,20.3095,-1.6619,0.0714286,2.83037,1,1,210837.0,399179.0,1695,0.44067872,7.1925716,19.016846,78.149658,10.109,619.673,-30.2391,15.3953,58.9972,81.1786
1980-06-13 01:00:23,1,19.6429,-1.72857,5.90952,0.819767,1,1,106910.0,362292.0,1695,0.44068772,7.1926022,19.010803,78.151428,8.83123,638.455,-21.2807,-13.9644,42.0115,77.337
1980-06-13 01:01:04,1,19.97,-0.97,4.74,0.776273,1,1,216684.0,382001.0,1695,0.44069672,7.1926308,19.008636,78.153168,10.0563,624.918,-25.6938,-8.38664,59.8096,79.4127
1980-06-13 01:01:44,1,19.6048,-2.26667,5.84286,0.688947,1,1,111634.0,389723.0,1695,0.44069672,7.1926308,19.000824,78.153168,9.09456,636.04,-19.6721,-10.2195,42.9296,80.2113
1980-06-13 01:02:25,1,19.935,-2.665,4.885,0.614675,1,1,126779.0,390152.0,1695,0.44070572,7.1926603,18.998688,78.154922,9.483,638.68,-18.1835,-10.6845,45.749,80.2555
1980-06-13 01:03:05,1,19.6476,-3.56667,4.78095,0.59247,1,1,116661.0,396339.0,1695,0.44071472,7.1926889,18.992615,78.156677,9.56168,636.2,-11.5197,-6.07,43.8854,80.8893
1980-06-13 01:03:46,1,20.335,-1.38,3.205,1.24352,1,1,126390.0,406289.0,1695,0.44071472,7.1926889,18.984802,78.156677,9.3766,631.771,-26.9994,2.05667,45.6788,81.8984
1980-06-13 01:04:26,1,20.3143,-1.84286,2.88095,1.01675,1,1,104283.0,349063.0,1695,0.44072372,7.1927185,18.982666,78.158432,8.75845,629.231,-23.4467,10.7125,41.4921,75.9119
1980-06-13 01:05:07,1,19.735,-2.145,4.79,0.669067,1,1,117490.0,397943.0,1695,0.44073272,7.1927481,18.976593,78.160187,9.38531,635.358,-23.1176,-11.374,44.0412,81.0529
1980-06-13 01:05:47,1,19.7,-2.47619,4.0,0.762767,1,1,111626.0,375677.0,1695,0.44073272,7.1927481,18.972687,78.160187,9.52948,631.251,-20.8799,3.65754,42.9279,78.7526
1980-06-13 01:06:28,1,19.435,-1.985,5.07,1.46583,1,1,115770.0,374657.0,1695,0.44074172,7.1927767,18.966644,78.161942,9.17702,634.184,-14.0612,-0.907142,43.7175,78.6457
1980-06-13 01:07:08,1,19.3905,-1.02857,4.69048,3.18224,1,1,135272.0,347275.0,1695,0.44075072,7.1928062,18.964478,78.163681,8.30286,634.283,-17.0902,-15.9048,47.2565,75.7172
1980-06-13 01:07:49,1,19.2952,-2.25238,3.10952,2.5132,1,1,145092.0,380343.0,1695,0.44075072,7.1928062,18.956665,78.163681,9.19691,632.505,-12.2962,-0.286234,48.9418,79.2402
1980-06-13 01:08:29,1,19.4864,-0.0772727,-1.15,3.06846,1,1,114766.0,397799.0,1695,0.44075972,7.1928349,18.950592,78.165436,8.37207,628.601,-23.1979,30.4081,43.5276,81.0382
1980-06-13 01:09:10,1,18.065,-2.995,0.105,6.07456,1,1,149744.0,373060.0,1695,0.44076872,7.1928644,18.948456,78.167191,8.42493,642.757,8.99822,50.137,49.7201,78.4779
1980-06-13 01:09:50,1,18.5619,-2.42381,2.89524,1.69365,1,1,127002.0,421601.0,1695,0.44076872,7.1928644,18.940643,78.167191,8.78319,640.78,-17.8103,-4.62848,45.7892,83.4274
1980-06-13 01:10:31,1,18.77,-3.475,0.84,1.97392,1,1,137649.0,450978.0,1695,0.44077772,7.192894,18.938477,78.168945,9.18213,636.067,-23.5613,25.3223,47.67,86.285
1980-06-13 01:11:11,1,19.0048,-2.59048,-1.94286,1.37908,1,1,118815.0,436769.0,1695,0.44078672,7.1929226,18.932434,78.1707,8.86157,636.933,-7.03827,29.8192,44.2888,84.9149
1980-06-13 01:11:52,1,19.1048,-1.44286,-1.82381,2.33115,1,1,135507.0,428644.0,1695,0.44078672,7.1929226,18.924622,78.1707,8.86005,633.537,-22.1121,38.3861,47.2976,84.1214
1980-06-13 01:12:32,1,19.2429,1.4,-1.5381,1.7381,1,1,140343.0,417741.0,1695,0.44079572,7.1929522,18.922455,78.172455,8.77209,634.063,-48.9128,42.0261,48.1341,83.0446
1980-06-13 01:13:13,1,19.275,-0.98,-0.725,1.07998,1,1,137861.0,436680.0,1695,0.44080472,7.1929817,18.916382,78.174194,8.94954,632.892,-28.8958,21.7911,47.7065,84.9062
1980-06-13 01:13:53,1,18.5857,-3.90952,0.190476,2.95379,1,1,116256.0,389153.0,1695,0.44080472,7.1929817,18.912476,78.174194,8.33186,632.845,-12.8569,16.6475,43.8093,80.1527
1980-06-13 01:14:34,1,13.37,-10.925,6.765,2.73519,1,1,157062.0,354691.0,1695,0.44081372,7.1930103,18.906433,78.175949,8.01289,662.844,36.112,-27.1509,50.9207,76.5214
1980-06-13 01:15:14,1,17.019,-5.8381,5.57143,4.19379,1,1,136292.0,463194.0,1695,0.44082272,7.1930399,18.904266,78.177704,10.0543,646.123,6.32444,-35.4478,47.4344,87.4459
1980-06-13 01:15:55,1,17.8857,-6.61429,-5.05238,2.09221,1,1,125766.0,349972.0,1695,0.44082272,7.1930399,18.896454,78.177704,8.34511,636.36,-1.90262,35.6498,45.5659,76.0106
1980-06-13 01:16:35,1,15.8952,-8.34286,-7.58571,2.61576,1,1,117128.0,372876.0,1695,0.44083172,7.1930685,18.890411,78.179459,8.2775,653.137,21.4469,70.2334,43.9733,78.4585
1980-06-13 01:17:16,1,10.7143,-11.1095,-9.77143,5.20076,1,1,191951.0,442137.0,1695,0.44084072,7.1930981,18.888245,78.181213,10.5914,706.266,34.8492,116.224,56.2928,85.4351
1980-06-13 01:17:56,-1,nan,nan,nan,nan,1,4,nan,nan,1695,0.44084072,7.1930981,18.880432,78.181213,nan,nan,nan,nan,nan,nan
1980-06-13 01:18:37,1,14.0143,-6.13333,-5.39048,8.96281,1,1,114347.0,296723.0,1695,0.44084972,7.1931276,18.878296,78.182968,5.76486,657.717,30.4526,74.2794,43.448,69.9895
1980-06-13 01:19:17,1,18.0545,-3.93636,1.00455,1.58681,1,1,131334.0,480268.0,1695,0.44085872,7.1931562,18.872223,78.184708,9.07431,638.009,-12.3313,6.33159,46.5636,89.043
1980-06-13 01:19:58,1,17.49,-4.845,1.645,3.14195,1,1,158849.0,452213.0,1695,0.44085872,7.1931562,18.86441,78.184708,8.56175,646.078,4.61248,1.66188,51.2094,86.4032
1980-06-13 01:20:38,1,18.0333,-3.41429,0.747619,2.42747,1,1,142715.0,510779.0,1695,0.44086772,7.1931858,18.862244,78.186462,8.53975,643.161,-6.65843,16.7198,48.5393,91.8279
1980-06-13 01:21:19,1,18.195,-1.685,2.125,0.746743,1,1,165329.0,496964.0,1695,0.44087672,7.1932144,18.856201,78.188217,9.06234,644.861,-20.453,3.80083,52.2435,90.5775
1980-06-13 01:21:59,1,18.1381,-0.895238,2.64762,0.867164,1,1,145683.0,477533.0,1695,0.44087672,7.1932144,18.852295,78.188217,8.97022,639.696,-25.9462,0.674675,49.0413,88.7891
1980-06-13 01:22:40,1,18.445,-1.205,1.69,1.50295,1,1,143786.0,426767.0,1695,0.44088572,7.193244,18.846222,78.189972,8.61168,635.562,-24.5538,1.29229,48.7209,83.9369
1980-06-13 01:23:20,1,18.6857,-1.75714,-0.0190476,0.69794,1,1,132439.0,423075.0,1695,0.44089472,7.1932735,18.840179,78.191727,8.30276,634.703,-21.8999,16.8155,46.759,83.5732
1980-06-13 01:24:01,1,18.91,-1.815,-0.1,1.45505,1,1,140123.0,454272.0,1695,0.44090372,7.1933022,18.838013,78.193481,8.83278,635.998,-18.3862,11.707,48.0964,86.5996
1980-06-13 01:24:41,1,17.9714,-4.12381,-3.3381,2.75033,1,1,117549.0,521170.0,1695,0.44090372,7.1933022,18.8302,78.193481,9.18021,644.895,-11.2635,44.4948,44.0522,92.7572
1980-06-13 01:25:22,1,18.0,-4.79524,-2.25238,1.57211,1,1,145026.0,456599.0,1695,0.44091272,7.1933317,18.828033,78.195221,8.97744,640.381,-14.2299,22.4049,48.9306,86.8211
1980-06-13 01:26:02,1,17.919,-5.22857,-1.9619,1.51979,1,1,130886.0,492855.0,1695,0.44092172,7.1933613,18.821991,78.196976,9.0252,647.555,11.1857,32.0083,46.4841,90.2023
1980-06-13 01:26:43,1,18.14,-4.305,0.345,0.856359,1,1,136319.0,482894.0,1695,0.44092172,7.1933613,18.814178,78.196976,9.29787,642.224,-4.72182,7.22795,47.4391,89.2861
1980-06-13 01:27:23,1,18.019,-4.00952,1.55238,1.95305,1,1,144963.0,454841.0,1695,0.44093072,7.1933899,18.812012,78.19873,8.55499,642.923,-11.0362,-5.95724,48.9199,86.6538
1980-06-13 01:28:04,1,17.375,-6.755,-1.64,1.6376,1,1,140336.0,469623.0,1695,0.44093972,7.1934195,18.805969,78.200485,8.62912,648.169,12.4239,18.4884,48.1329,88.0506
1980-06-13 01:28:44,1,15.8905,-8.61905,-2.44762,2.94928,1,1,147139.0,504364.0,1695,0.44093972,7.1934195,18.802063,78.200485,9.13048,651.559,12.2746,27.3401,49.2859,91.2493
1980-06-13 01:29:25,1,15.681,-0.114286,4.2,7.85863,1,1,212170.0,369254.0,1695,0.44094872,7.1934481,18.79599,78.20224,8.48134,651.496,14.6115,27.6969,59.1834,78.0766
1980-06-13 01:30:05,1,15.3286,3.51429,8.39524,2.27678,1,1,171623.0,484594.0,1695,0.44095773,7.1934776,18.793854,78.203995,7.85413,664.61,-56.8129,-43.4258,53.2286,89.4431
1980-06-13 01:30:46,1,16.3045,0.172727,6.88182,2.53418,1,1,148665.0,529451.0,1695,0.44095773,7.1934776,18.786041,78.203995,9.04271,658.9,-47.3869,-38.9237,49.5408,93.4912
1980-06-13 01:31:26,1,16.9095,-1.58095,5.30476,2.11142,1,1,168657.0,521727.0,1695,0.44096673,7.1935072,18.779968,78.205734,9.1565,654.247,9.0114,-15.7211,52.7667,92.8067
1980-06-13 01:32:07,1,17.4591,-0.422727,4.48636,1.7417,1,1,147119.0,491023.0,1695,0.44097573,7.1935358,18.777802,78.207489,8.76943,646.548,-21.4356,-10.4072,49.2825,90.0345
1980-06-13 01:32:47,1,17.5952,-2.2619,3.75238,1.57528,1,1,131685.0,528203.0,1695,0.44097573,7.1935358,18.769989,78.207489,8.66237,645.041,-20.6498,-12.1423,46.6257,93.3809
1980-06-13 01:33:28,1,17.2429,-3.92857,2.07619,2.32494,1,1,161465.0,581388.0,1695,0.44098473,7.1935654,18.767853,78.209244,9.1044,645.533,-30.1895,-6.79766,51.6293,97.9695
1980-06-13 01:34:08,1,16.1381,-7.56667,1.02857,2.13139,1,1,166107.0,554325.0,1695,0.44099373,7.193594,18.76178,78.210999,8.86605,653.11,-0.971386,-4.28516,52.3663,95.6621
1980-06-13 01:34:49,1,14.6238,-10.281,-1.87619,1.87653,1,1,150341.0,565992.0,1695,0.44099373,7.193594,18.753967,78.210999,8.88545,665.879,32.8545,19.5012,49.8192,96.6637
1980-06-13 01:35:29,1,16.2524,-6.62857,-0.82381,2.9239,1,1,140989.0,510958.0,1695,0.44100273,7.1936235,18.751831,78.212753,8.75005,646.863,-2.57252,16.0037,48.2448,91.8439
1980-06-13 01:36:10,1,16.2143,-6.41905,-4.98095,1.81489,1,1,142267.0,538967.0,1695,0.44101173,7.1936531,18.745758,78.214508,9.11647,660.219,12.9687,42.8067,48.463,94.3277